Date,TemperatureHighF,TemperatureAvgF,TemperatureLowF,DewpointHighF,DewpointAvgF,DewpointLowF,HumidityHigh,HumidityAvg,HumidityLow,PressureMaxIn,PressureMinIn,WindSpeedMaxMPH,WindSpeedAvgMPH,GustSpeedMaxMPH,PrecipitationSumIn
2013-3-1,35,32,31,32,29,25,98,88,77,0.00,40.00,9,3,16,0.19
2013-3-2,36,32,30,30,24,18,94,71,51,0.00,40.00,8,4,13,0.29
2013-3-3,38,35,31,32,30,27,99,81,68,0.00,40.00,19,8,34,0.13
2013-3-4,37,34,33,35,33,31,99,95,77,0.00,40.00,15,4,26,0.61
2013-3-5,43,34,31,33,29,26,96,82,62,0.00,40.00,4,2,6,0.01
2013-3-6,36,32,30,34,31,27,100,95,82,0.00,40.00,5,2,7,0.18
2013-3-7,36,33,32,34,32,30,100,96,80,0.00,40.00,38,18,68,0.53
2013-3-8,37,33,32,36,32,30,100,97,81,0.00,40.00,20,7,32,0.60
2013-3-9,37,33,31,35,32,30,100,97,85,0.00,40.00,15,4,32,0.68
2013-3-10,32,30,29,31,28,21,99,92,63,0.00,40.00,13,4,19,0.09
2013-3-11,38,35,32,21,16,12,63,47,37,0.00,40.00,37,19,63,0.22
2013-3-12,39,32,27,13,9,3,46,38,30,0.00,40.00,22,6,47,0.01
2013-3-13,33,27,24,14,5,-2,64,38,27,0.00,40.00,14,5,19,0.00
2013-3-14,33,27,22,29,23,14,98,84,61,0.00,40.00,16,6,23,0.07
2013-3-15,41,31,28,20,12,4,66,45,33,0.00,40.00,9,3,11,0.12
2013-3-16,42,32,26,13,7,0,42,34,23,0.00,40.00,5,2,6,0.02
2013-3-17,33,31,28,13,6,1,45,35,26,0.00,40.00,43,22,60,0.00
2013-3-18,36,29,26,10,5,0,47,34,29,0.00,40.00,33,8,53,0.00
2013-3-19,28,25,22,4,-1,-9,38,31,21,0.00,40.00,59,34,78,0.00
2013-3-20,26,22,19,2,-5,-12,39,30,19,0.00,40.00,71,42,189,0.01
2013-3-21,35,26,21,6,2,-2,44,34,26,0.00,40.00,17,6,34,0.00
2013-3-22,32,28,24,32,26,5,100,90,40,0.00,40.00,22,8,30,0.03
2013-3-23,40,33,31,36,32,28,100,95,83,0.00,40.00,6,3,8,0.26
2013-3-24,35,33,30,34,31,26,99,93,75,0.00,40.00,6,3,9,0.26
2013-3-25,32,25,17,32,14,-2,100,68,33,0.00,40.00,32,12,112,0.05
2013-3-26,29,19,16,1,-4,-7,46,35,23,0.00,40.00,32,8,112,0.01
2013-3-27,33,23,17,8,-1,-11,42,34,26,0.00,40.00,10,4,26,0.00
2013-3-28,32,30,27,32,29,25,100,97,92,0.00,40.00,12,8,31,0.00
2013-3-29,35,31,31,34,27,-100,100,94,93,0.00,40.00,9,4,28,0.33
2013-3-30,44,34,32,37,30,-100,100,92,71,0.00,40.00,4,2,7,0.35
2013-3-31,45,35,32,35,33,30,100,92,69,0.00,40.00,4,2,6,0.28